Погода Гусь-Хрустальный

Погода Гусь-Хрустальный : погода сейчас, прогноз погоды и архив. Всё, что Вы хотите узнать о погоде Гусь-Хрустальный!

Хотите узнать прогноз погоды Гусь-Хрустальный? Тогда Вам сюда: Погода Гусь-Хрустальный

Поиск расширенной информации на нашем сайте:

Другие новости

Новости СМИ2

Главная страница сайта

Новости сайта

02.10.2013

Напоминаем, что на нашем новом сайте вы можете получить высокодетализированные прогнозы погоды по пунктам России, СНГ и мира (включающие важные для авиации метеовеличины, такие как направление и скорость ветра, видимость, явления погоды, количество и форма облачности, нижняя и верхняя граница облачности), а также ознакомиться с разнообразными материалами по авиационной метеорологии и подборкой полезных ссылок на эту тему.

Сайт Метеоцентр.Азия посвящён разработке технологий оптимизации авиаметеорологического обслуживания, включая проектирование и перспективное создание нескольких автоматизированных авиаметеорологических систем:
- система выпуска высокодетальных прогностических карт явлений погоды для нижнего воздушного пространства по России и ближнему зарубежью;
- система верификации прогнозов TAF (выпускаемых синоптиками официальных АМСГ РФ и ближнего зарубежья) и AUTOTAF (выпускаемых сайтом Метеоцентр.Азия) - выявление ошибок, онлайн-сопоставление с фактической погодой METAR, автоматическое внесение коррективов в прогнозы при резком отклонении фактической погоды от прогноза, подсчёт оправдываемости прогнозов по элементам и в целом;
- система обработки, анализа и отображения авиаметеорологической информации для применения провайдерами метеорологической информации.


Погода Гусь-Хрустальный - сегодня

Время (UTC), дата Ветер
(°,м/с) 
Видим.   Явления Облачность Т
(°С)
Тd
(°С)
f(%) Тe
(°С)
Pmin
(гПа)
dP
(гПа)
Po
(мм)
O2
(г/м3)
Тmin Tmax R s Состояние
почвы
06 21.03.17 150 (ЮВ) 4000 м  дымка{дождь}  10/10 300 м 
[St]
+2.8 +2.2 96 +1  1013.1  1.1  747  298           
09 21.03.17 170 (Ю) 4000 м  слаб. дождь  10/9 300 м средняя 
[Sc|As op]
+2.9 +2.1 94 +2  1013.9  0.8  748  298           
12 21.03.17 160 (Ю) 10 км  {дождь}  10/10 300 м 
[Sc|Ns]
+4.2 +3.5 95 +4  1014.2  0.4  748  296           
15 21.03.17 180 (Ю) 4000 м  дымка{дождь}  9/9 300 м 
[Sc]
+4.7 +3.7 93 +4  1015.1  749  296    +4.7  0.8     
18 21.03.17 180 (Ю) 4000 м  дымка{дождь}  10/10 300 м 
[St]
+4.6 +3.6 93 +5  1016.2  750  296           
21 21.03.17 180 (Ю) 4000 м  дымка  10/10 300 м 
[St]
+4.3 +3.4 94 +5  1017.3  1.1  750  297           
00 22.03.17 160 (Ю) 4000 м  дымка  10/10 300 м 
[St]
+3.5 +2.9 96 +4  1018.2  0.8  751  298           
03 22.03.17 140 (ЮВ) 2000 м  дымка  10/10 200 м 
[St]
+1.8 +1.4 97 +3  1019.1  0.7  752  301  +1.8        мокрая 
06 22.03.17 170 (Ю) 2000 м  дымка{туман}  9/8 300 м верхняя 
[Sc|Cs]
+3.5 +3.1 97 +3  1019.9  752  299  +1.2         
09 22.03.17 180 (Ю) 20000 м    8/5 300 м верхняя 
[Cu Sc|Cs]
+8.6 +0.7 58 +8  1019.4  -0.3  752  294           
12 22.03.17 190 (Ю) 20000 м    9/9 300 м 
[Sc]
+10.4 -1.3 44 +10  1018.5  -0.7  752  292           
15 22.03.17 160 (Ю) 20000 м    9/9 300 м 
[Sc]
+9.5 +0 51 +11  1018.1  -0.5  751  292    +11.2       
18 22.03.17 180 (Ю) 20000 м    9/9 300 м 
[Sc]
+6.7 +1.3 68 +7  1017.8  -0.4  751  295           
21 22.03.17 190 (Ю) 20000 м    9/9 300 м 
[Sc]
+6.8 +2.4 73 +7  1017.5  -0.3  751  295           
00 23.03.17 210 (ЮЗ) 20000 м    9/9 300 м 
[Sc]
+6.3 +2.4 76 +7  1016.5  -1  750  295           
03 23.03.17 180 (Ю) 20000 м    10/10 300 м 
[Sc]
+5.6 +2.5 80 +6  1015.4  -1.1  749  295  +5.5        влажная 
06 23.03.17 340 (С) 2{11}  2000 м  ливневой снег  10/10 300 м кучево-дожд. 
[Cb cap]
+0.8 +0.1 95 1018.2  2.5  751  302  +0.8         
09 23.03.17 310 (СЗ) 20000 м  {ливн. осадки}  8/8 300 м кучево-дожд. 
[Cb cap]
+4.6 +0.7 76 +4  1020.1  752  298           
12 23.03.17 290 (З) 20000 м  {ливн. осадки}  4/4 300 м 
[Sc]
+8.3 -2.6 46 +8  1020  0.1  752  295           
15 23.03.17 280 (З) 20000 м    6/6 300 м 
[Sc]
+8.2 -3.5 43 +8  1020.6  0.6  753  295    +9.5     
18 23.03.17 230 (ЮЗ) 20000 м    6/6 300 м 
[Sc]
+4.1 -2 64 +5  1022.1  1.2  754  300           
21 23.03.17 тихо ()   20000 м    3/0 верхняя 
[Cs]
+1.1 -2.5 77 +1  1023.2  0.9  755  303           
00 24.03.17 тихо ()   10 км    3/0 верхняя 
[Cs]
-2.2 -3 94 -2  1023.8  0.3  755  307           
03 24.03.17 230 (ЮЗ) 20000 м    3/0 верхняя 
[Ci fib]
-3.2 -3.9 95 -3  1024.1  0.3  755  308  -3.2        замёрзшая 
06 24.03.17 150 (ЮВ) 20000 м    4/0 верхняя 
[Cs]
+3.5 -1 72 +4  1022.3  -1.4  754  300  -3.3         
Время (UTC), дата Ветер
(°,м/с) 
Видим.   Явления Облачность Т
(°С)
Тd
(°С)
f(%) Тe
(°С)
Pmin
(гПа)
dP
(гПа)
Po
(мм)
O2
(г/м3)
Тmin Tmax R s Состояние
почвы

Для получения пояснительной информации подведите курсор к названию столбца.

ПОГОДА Гусь-Хрустальный - архив

Всё, что Вы хотите узнать о погоде Гусь-Хрустальный - удобно и подробно!

Выберите нужную дату (начиная с 1 января 2015* года) и нажмите кнопку "Найти".
Будут отображены архивные сводки погоды по пункту Гусь-Хрустальный, начиная с указанной даты.


Отображать данные в формате CSV (для использования в таблицах Excel)


Внимание! Наш архив погоды предназначен исключительно для личного некоммерческого использования в познавательных целях. Если Вам необходимы официальные справки о состоянии погоды (для производственных, юридических, коммерческих и т.п. целей), обращайтесь в органы Росгидромета.

*Примечание: данная дата относится к архиву по метеостанциям СССР (Россия, СНГ, Балтия).
Архив по метеостанциям Зарубежной Европы и Азии (кроме Китая) хранится 10 дней, по другим регионам земного шара (Китай, Африка, Америка, Австралия, Океания) - 1 день.

Гусь-Хрустальный - район местоположения метеостанции


Название, широта, долгота, высота метеостанции:
Гусь-Хрустальный 55.6°ш. 40.6°д. 136 м над ур. моря [Российская Федерация]

Дополнительная информация

В oтличие oт бoльшинства пoгoдных сайтoв мы публикуем пoдрoбную метеoинфoрмацию в детальнoм прoфессиoнальнoм фoрмате.

Характеристики температуры и влажнoсти вoздуха измеряются на высoте 2 м в тени вдали oт зданий и деревьев.
Скoрoсть ветра измеряется на высoте 10 м (на урoвне рoста челoвека скoрoсть ветра ниже в 1.5-2 раза). Если метеoстанция нахoдится в гoрoде или в лесу, тo скoрoсть ветра занижена на 2-4 м/с пo сравнению с oткрытым местoм. Скoрoсть ветра над акватoриями крупных рек и oзёр, а также на вершинах хoлмoв на 2-5 м/с выше, чем в oбычных услoвиях.
Атмoсфернoе давление в разных тoчках местнoсти мoжет значительнo oтличаться oт давления на метеoстанции, в зависимoсти oт услoвий рельефа (при пoдъёме на 10 м давление пoнижается примернo на 1 мм рт.ст.).